AAL1330 KDCA-KLGA

Flight info

Callsign AAL1330
Flight time N/A
Altitude 23000
Route DOCTR5 AGARD SPEAK PROUD2
Aircraft A20N/M-SDE2E3FGHIRWXY/LB1

Departure

Time 2026-05-08 02:04
Airport Ronald Reagan Washington National Airport (KDCA)

Arrival

Time N/A
Airport LaGuardia Airport (KLGA)
Time Latitude Longitude Altitude Speed Heading
2026-05-08 01:30 38.85428 -77.04279 27 ft 0 kts 160°
2026-05-08 01:47 38.85430 -77.04280 27 ft 0 kts 176°
2026-05-08 01:47 38.85442 -77.04275 26 ft 2 kts 196°
2026-05-08 01:48 38.85472 -77.04268 26 ft 2 kts 191°
2026-05-08 01:48 38.85484 -77.04265 26 ft 0 kts 191°
2026-05-08 01:48 38.85488 -77.04264 26 ft 0 kts 155°
2026-05-08 01:48 38.85492 -77.04268 26 ft 0 kts 103°
2026-05-08 01:49 38.85492 -77.04273 26 ft 0 kts 66°
2026-05-08 01:49 38.85490 -77.04281 26 ft 0 kts 72°
2026-05-08 01:52 38.85494 -77.04265 26 ft 5 kts 72°
2026-05-08 01:53 38.85508 -77.04205 25 ft 6 kts 73°
2026-05-08 01:53 38.85509 -77.04200 24 ft 0 kts 71°
2026-05-08 01:53 38.85512 -77.04190 24 ft 5 kts 71°
2026-05-08 01:54 38.85519 -77.04163 24 ft 0 kts 71°
2026-05-08 01:54 38.85520 -77.04160 23 ft 1 kts 71°
2026-05-08 01:54 38.85522 -77.04149 23 ft 1 kts 73°
2026-05-08 01:54 38.85529 -77.04119 22 ft 5 kts 72°
2026-05-08 01:55 38.85544 -77.04061 21 ft 6 kts 67°
2026-05-08 01:55 38.85571 -77.04040 20 ft 8 kts
2026-05-08 01:55 38.85638 -77.04042 19 ft 10 kts 358°
2026-05-08 01:55 38.85667 -77.04044 18 ft 0 kts 357°
2026-05-08 01:56 38.85668 -77.04044 18 ft 0 kts 357°
2026-05-08 01:57 38.85689 -77.04046 18 ft 11 kts 354°
2026-05-08 01:57 38.85824 -77.04062 17 ft 14 kts 355°
2026-05-08 01:57 38.85917 -77.04054 16 ft 10 kts 33°
2026-05-08 01:57 38.85933 -77.04008 15 ft 4 kts 82°
2026-05-08 01:58 38.85934 -77.03997 15 ft 1 kts 76°
2026-05-08 01:58 38.85950 -77.03979 15 ft 4 kts 37°
2026-05-08 01:58 38.85970 -77.03966 14 ft 0 kts 21°
2026-05-08 02:00 38.85990 -77.03957 14 ft 4 kts 19°
2026-05-08 02:00 38.86006 -77.03951 14 ft 0 kts 15°
2026-05-08 02:02 38.86008 -77.03951 14 ft 1 kts 14°
2026-05-08 02:02 38.86063 -77.03929 13 ft 14 kts 25°
2026-05-08 02:03 38.86031 -77.03868 13 ft 13 kts 172°
2026-05-08 02:03 38.85714 -77.03834 17 ft 81 kts 176°
2026-05-08 02:03 38.84931 -77.03750 19 ft 140 kts 173°
2026-05-08 02:03 38.83890 -77.03625 405 ft 150 kts 176°
2026-05-08 02:04 38.82897 -77.03556 980 ft 153 kts 181°
2026-05-08 02:04 38.81737 -77.03417 1320 ft 178 kts 170°
2026-05-08 02:04 38.80489 -77.02947 1782 ft 200 kts 161°
2026-05-08 02:04 38.79144 -77.02200 2156 ft 224 kts 155°
2026-05-08 02:05 38.77783 -77.01102 2679 ft 239 kts 129°
2026-05-08 02:05 38.77179 -76.99146 3293 ft 244 kts 84°
2026-05-08 02:05 38.77155 -76.96941 3952 ft 254 kts 90°
2026-05-08 02:05 38.77296 -76.94717 4698 ft 254 kts 69°
2026-05-08 02:06 38.77938 -76.92613 5465 ft 257 kts 63°
2026-05-08 02:06 38.80619 -76.84424 8328 ft 261 kts 64°
2026-05-08 02:06 38.82206 -76.78825 10143 ft 268 kts 73°
2026-05-08 02:06 38.82638 -76.76429 10676 ft 284 kts 75°
2026-05-08 02:07 38.86421 -76.57066 14016 ft 295 kts 69°
2026-05-08 02:07 38.93357 -76.32996 23468 ft 393 kts 70°
2026-05-08 02:07 38.98198 -76.11552 27480 ft 436 kts 77°
2026-05-08 02:07 38.99965 -75.99090 29318 ft 429 kts 76°
2026-05-08 02:08 39.03493 -75.81303 29997 ft 432 kts 60°
2026-05-08 02:08 39.04797 -75.77814 29994 ft 439 kts 54°
2026-05-08 02:08 39.07179 -75.72918 29987 ft 447 kts 44°
2026-05-08 02:09 39.08649 -75.70562 29980 ft 449 kts 39°
2026-05-08 02:09 39.12497 -75.65546 29979 ft 461 kts 33°
2026-05-08 02:10 39.17158 -75.59624 29968 ft 482 kts 37°
2026-05-08 02:10 39.20312 -75.55444 29966 ft 495 kts 37°
2026-05-08 02:10 39.21925 -75.53399 29949 ft 487 kts 34°
2026-05-08 02:11 39.24433 -75.50556 29956 ft 466 kts 28°
2026-05-08 02:11 39.27010 -75.48064 29972 ft 467 kts 24°
2026-05-08 02:11 39.32492 -75.43273 29969 ft 485 kts 24°
2026-05-08 02:12 39.38149 -75.38324 29969 ft 494 kts 25°
2026-05-08 02:12 39.43782 -75.33316 29964 ft 488 kts 26°
2026-05-08 02:13 39.49437 -75.28238 29970 ft 505 kts 26°
2026-05-08 02:13 39.55283 -75.22871 29962 ft 522 kts 28°
2026-05-08 02:14 39.61108 -75.17340 29968 ft 514 kts 27°
2026-05-08 02:14 39.66835 -75.11951 29956 ft 503 kts 26°
2026-05-08 02:15 39.72529 -75.07000 29886 ft 489 kts 25°
2026-05-08 02:15 39.75263 -75.04311 29212 ft 502 kts 40°
2026-05-08 02:15 39.77231 -75.00490 27414 ft 537 kts 70°
2026-05-08 02:16 39.78400 -74.95879 24337 ft 578 kts 65°
2026-05-08 02:16 39.80396 -74.91322 22485 ft 577 kts 57°
2026-05-08 02:16 40.07387 -74.45973 19643 ft 548 kts 49°
2026-05-08 02:16 40.11379 -74.39174 3883 ft 219 kts
2026-05-08 02:17 40.12072 -74.37299 228 ft 336 kts 72°